| time (UTC) | temp F | wind direction | speed knots | gust knots | rain 1hr in | rain 24hr in | rain mn in | humidity % | barometer mb |
| 20260505090127 | 51 | 157 | 0.0 | 0.0 | 0.00 | 0.00 | 0.00 | 10 | 1111.0 |
| 20260504202704 | 74 | 247 | 0.0 | 4.3 | 0.00 | 0.00 | 0.00 | 51 | 1111.0 |
| 20260504202204 | 74 | 247 | 0.0 | 4.3 | 0.00 | 0.00 | 0.00 | 52 | 1111.0 |
| 20260504201703 | 74 | 247 | 0.0 | 2.6 | 0.00 | 0.00 | 0.00 | 52 | 1111.0 |
| 20260504200203 | 73 | 247 | 0.0 | 3.5 | 0.00 | 0.00 | 0.00 | 52 | 1111.0 |
| 20260504195703 | 73 | 247 | 0.0 | 0.0 | 0.00 | 0.00 | 0.00 | 52 | 1111.0 |
| 20260504195203 | 73 | 247 | 0.0 | 3.5 | 0.00 | 0.00 | 0.00 | 52 | 1111.0 |
| 20260504194201 | 73 | 247 | 0.0 | 6.1 | 0.00 | 0.00 | 0.00 | 52 | 1111.0 |
| 20260504193201 | 73 | 247 | 0.0 | 6.1 | 0.00 | 0.00 | 0.00 | 53 | 1111.0 |
| 20260504192702 | 73 | 247 | 0.0 | 0.0 | 0.00 | 0.00 | 0.00 | 52 | 1111.0 |
| 20260504192201 | 73 | 247 | 0.0 | 5.2 | 0.00 | 0.00 | 0.00 | 52 | 1111.0 |
| 20260504190159 | 72 | 247 | 0.0 | 1.7 | 0.00 | 0.00 | 0.00 | 52 | 1111.0 |
| 20260504184658 | 72 | 247 | 0.0 | 3.5 | 0.00 | 0.00 | 0.00 | 52 | 1111.0 |
| 20260504183159 | 72 | 247 | 0.0 | 5.2 | 0.00 | 0.00 | 0.00 | 51 | 1111.0 |
| 20260504182657 | 73 | 247 | 0.0 | 7.0 | 0.00 | 0.00 | 0.00 | 51 | 1111.0 |
| 20260504181658 | 72 | 247 | 0.0 | 3.5 | 0.00 | 0.00 | 0.00 | 51 | 1111.0 |
| 20260504180657 | 72 | 22 | 0.0 | 0.0 | 0.00 | 0.00 | 0.00 | 51 | 1111.0 |
| 20260504175656 | 72 | 247 | 0.0 | 4.3 | 0.00 | 0.00 | 0.00 | 51 | 1111.0 |
| 20260504175159 | 71 | 247 | 0.0 | 1.7 | 0.00 | 0.00 | 0.00 | 51 | 1111.0 |
| 20260504174655 | 71 | 247 | 0.0 | 4.3 | 0.00 | 0.00 | 0.00 | 51 | 1111.0 |
| 20260504174155 | 71 | 0 | 0.0 | 0.0 | 0.00 | 0.00 | 0.00 | 51 | 1111.0 |
| 20260504173654 | 71 | 0 | 0.0 | 0.0 | 0.00 | 0.00 | 0.00 | 51 | 1111.0 |
| 20260504173154 | 71 | 247 | 0.0 | 3.5 | 0.00 | 0.00 | 0.00 | 50 | 1111.0 |
| 20260504171153 | 70 | 247 | 0.0 | 4.3 | 0.00 | 0.00 | 0.00 | 50 | 1111.0 |
| 20260504170653 | 69 | 247 | 0.0 | 0.0 | 0.00 | 0.00 | 0.00 | 51 | 1111.0 |
| 20260504170152 | 69 | 0 | 0.0 | 0.0 | 0.00 | 0.00 | 0.00 | 50 | 1111.0 |
| 20260504160149 | 63 | 0 | 0.0 | 2.6 | 0.00 | 0.00 | 0.00 | 50 | 1111.0 |
| 20260504150146 | 56 | 22 | 0.0 | 3.5 | 0.00 | 0.00 | 0.00 | 49 | 1111.0 |
| 20260504130639 | 49 | 0 | 0.0 | 4.3 | 0.00 | 0.00 | 0.00 | 50 | 1111.0 |
| 20260504110632 | 52 | 22 | 0.0 | 6.1 | 0.00 | 0.00 | 0.00 | 49 | 1111.0 |
| 20260504110132 | 52 | 22 | 2.6 | 4.3 | 0.00 | 0.00 | 0.00 | 49 | 1111.0 |
| 20260504100129 | 53 | 22 | 0.0 | 4.3 | 0.00 | 0.00 | 0.00 | 49 | 1111.0 |